ASP406 KAST-KPDX

Flight info

Callsign ASP406
Flight time 0h 20m
Altitude 11000
Route AST3 AST V112 BTG
Aircraft B461/M-SDFGIRWY/LB1

Departure

Time 2026-04-16 22:26
Airport Astoria Regional Airport (KAST)

Arrival

Time 2026-04-16 22:46
Airport Portland International Airport (KPDX)
Time Latitude Longitude Altitude Speed Heading
2026-04-16 22:16 46.15568 -123.88080 22 ft 0 kts 153°
2026-04-16 22:22 46.15564 -123.88077 22 ft 0 kts 145°
2026-04-16 22:22 46.15567 -123.88065 22 ft 3 kts 31°
2026-04-16 22:22 46.15599 -123.88041 22 ft 7 kts 37°
2026-04-16 22:22 46.15655 -123.88041 22 ft 10 kts 330°
2026-04-16 22:23 46.15730 -123.88093 22 ft 12 kts 353°
2026-04-16 22:23 46.15780 -123.87996 22 ft 13 kts 65°
2026-04-16 22:23 46.15816 -123.87859 21 ft 15 kts 70°
2026-04-16 22:23 46.15818 -123.87691 19 ft 17 kts 96°
2026-04-16 22:24 46.15808 -123.87506 18 ft 19 kts 95°
2026-04-16 22:24 46.15794 -123.87296 16 ft 22 kts 97°
2026-04-16 22:24 46.15779 -123.87071 14 ft 23 kts 95°
2026-04-16 22:24 46.15765 -123.86857 13 ft 18 kts 97°
2026-04-16 22:25 46.15807 -123.86736 12 ft 10 kts 19°
2026-04-16 22:25 46.15833 -123.86771 12 ft 0 kts 275°
2026-04-16 22:25 46.15845 -123.86983 13 ft 65 kts 276°
2026-04-16 22:25 46.15911 -123.88090 234 ft 140 kts 271°
2026-04-16 22:26 46.16002 -123.89594 890 ft 166 kts 273°
2026-04-16 22:26 46.16524 -123.91129 1637 ft 188 kts 313°
2026-04-16 22:26 46.17763 -123.92170 2064 ft 230 kts 330°
2026-04-16 22:26 46.18986 -123.93782 2697 ft 254 kts 294°
2026-04-16 22:27 46.19297 -123.96323 3474 ft 271 kts 261°
2026-04-16 22:27 46.18540 -123.98859 4238 ft 288 kts 230°
2026-04-16 22:27 46.16933 -124.00492 4993 ft 282 kts 199°
2026-04-16 22:27 46.15076 -124.00642 5740 ft 267 kts 166°
2026-04-16 22:28 46.13444 -123.99475 6123 ft 267 kts 150°
2026-04-16 22:28 46.11773 -123.98212 6376 ft 273 kts 143°
2026-04-16 22:28 46.10512 -123.96201 6940 ft 273 kts 120°
2026-04-16 22:28 46.09853 -123.93677 7489 ft 274 kts 100°
2026-04-16 22:29 46.09621 -123.90951 7990 ft 277 kts 97°
2026-04-16 22:29 46.09387 -123.88174 8490 ft 279 kts 97°
2026-04-16 22:29 46.09147 -123.85432 8968 ft 281 kts 97°
2026-04-16 22:29 46.08881 -123.82639 9434 ft 282 kts 100°
2026-04-16 22:30 46.08332 -123.79942 9870 ft 284 kts 108°
2026-04-16 22:30 46.07729 -123.77208 10311 ft 286 kts 108°
2026-04-16 22:30 46.07123 -123.74496 10734 ft 288 kts 108°
2026-04-16 22:30 46.06498 -123.71707 10972 ft 297 kts 108°
2026-04-16 22:31 46.05854 -123.68844 11003 ft 310 kts 108°
2026-04-16 22:31 46.05168 -123.65812 11006 ft 322 kts 108°
2026-04-16 22:31 46.04476 -123.62760 11005 ft 323 kts 108°
2026-04-16 22:31 46.03776 -123.59683 11004 ft 322 kts 108°
2026-04-16 22:32 46.03085 -123.56657 11004 ft 322 kts 108°
2026-04-16 22:32 46.02379 -123.53575 11004 ft 323 kts 108°
2026-04-16 22:32 46.01676 -123.50519 11005 ft 324 kts 108°
2026-04-16 22:32 46.00968 -123.47450 11006 ft 325 kts 108°
2026-04-16 22:33 46.00253 -123.44361 11006 ft 326 kts 108°
2026-04-16 22:33 45.99538 -123.41278 10959 ft 326 kts 108°
2026-04-16 22:33 45.98821 -123.38196 10976 ft 326 kts 108°
2026-04-16 22:33 45.98093 -123.35080 10979 ft 326 kts 108°
2026-04-16 22:34 45.97368 -123.31980 10979 ft 327 kts 109°
2026-04-16 22:34 45.96642 -123.28883 10979 ft 327 kts 109°
2026-04-16 22:34 45.95915 -123.25790 10979 ft 327 kts 109°
2026-04-16 22:34 45.95190 -123.22712 10978 ft 328 kts 109°
2026-04-16 22:35 45.94353 -123.19696 10978 ft 328 kts 114°
2026-04-16 22:35 45.93412 -123.16704 10978 ft 328 kts 114°
2026-04-16 22:35 45.92472 -123.13695 10978 ft 328 kts 114°
2026-04-16 22:35 45.91464 -123.10780 10976 ft 328 kts 122°
2026-04-16 22:36 45.90168 -123.08084 10980 ft 328 kts 126°
2026-04-16 22:36 45.88851 -123.05424 10985 ft 328 kts 123°
2026-04-16 22:36 45.87711 -123.02612 10984 ft 317 kts 118°
2026-04-16 22:36 45.86685 -122.99910 10935 ft 297 kts 118°
2026-04-16 22:37 45.85734 -122.97414 10815 ft 284 kts 118°
2026-04-16 22:37 45.84786 -122.94929 10329 ft 286 kts 118°
2026-04-16 22:37 45.83833 -122.92430 9960 ft 284 kts 118°
2026-04-16 22:37 45.82893 -122.89961 9588 ft 282 kts 118°
2026-04-16 22:38 45.81957 -122.87505 9189 ft 281 kts 118°
2026-04-16 22:38 45.81023 -122.85054 8810 ft 279 kts 118°
2026-04-16 22:38 45.80094 -122.82616 8436 ft 277 kts 118°
2026-04-16 22:38 45.79189 -122.80241 8043 ft 275 kts 118°
2026-04-16 22:39 45.78270 -122.77825 7522 ft 274 kts 118°
2026-04-16 22:39 45.77366 -122.75452 7067 ft 272 kts 118°
2026-04-16 22:39 45.76466 -122.73088 6610 ft 269 kts 118°
2026-04-16 22:39 45.75581 -122.70763 6108 ft 268 kts 118°
2026-04-16 22:40 45.74691 -122.68428 5624 ft 265 kts 118°
2026-04-16 22:40 45.73840 -122.66193 5147 ft 256 kts 118°
2026-04-16 22:40 45.73001 -122.63989 4663 ft 249 kts 118°
2026-04-16 22:40 45.72179 -122.61845 4180 ft 244 kts 119°
2026-04-16 22:41 45.71320 -122.59788 3698 ft 239 kts 122°
2026-04-16 22:41 45.70363 -122.57877 3219 ft 236 kts 135°
2026-04-16 22:41 45.68988 -122.56746 2977 ft 222 kts 159°
2026-04-16 22:41 45.67539 -122.56046 2441 ft 226 kts 161°
2026-04-16 22:42 45.66037 -122.55333 2058 ft 221 kts 161°
2026-04-16 22:42 45.64640 -122.54666 1989 ft 203 kts 161°
2026-04-16 22:42 45.63434 -122.54079 1976 ft 163 kts 158°
2026-04-16 22:42 45.62494 -122.53501 1859 ft 135 kts 156°
2026-04-16 22:43 45.61668 -122.52994 1599 ft 127 kts 157°
2026-04-16 22:43 45.60859 -122.52533 1345 ft 122 kts 159°
2026-04-16 22:43 45.60064 -122.52128 1080 ft 121 kts 160°
2026-04-16 22:43 45.59277 -122.51768 899 ft 116 kts 165°
2026-04-16 22:44 45.58497 -122.51873 739 ft 115 kts 210°
2026-04-16 22:44 45.57889 -122.52695 629 ft 123 kts 238°
2026-04-16 22:44 45.57562 -122.53822 479 ft 122 kts 259°
2026-04-16 22:44 45.57665 -122.54969 335 ft 119 kts 299°
2026-04-16 22:45 45.58086 -122.56000 181 ft 119 kts 300°
2026-04-16 22:45 45.58489 -122.57026 43 ft 118 kts 298°
2026-04-16 22:45 45.58846 -122.57941 22 ft 90 kts 299°
2026-04-16 22:45 45.59112 -122.58628 22 ft 70 kts 299°
2026-04-16 22:46 45.59201 -122.59023 22 ft 26 kts 274°
2026-04-16 22:46 45.59200 -122.59283 22 ft 24 kts 272°
2026-04-16 22:46 45.59254 -122.59515 23 ft 27 kts 298°
2026-04-16 22:46 45.59314 -122.59719 24 ft 19 kts 256°
2026-04-16 22:47 45.59196 -122.59851 22 ft 21 kts 206°
2026-04-16 22:47 45.59082 -122.59794 22 ft 14 kts 116°
2026-04-16 22:47 45.59037 -122.59664 22 ft 10 kts 86°
2026-04-16 22:47 45.59092 -122.59631 22 ft 7 kts
2026-04-16 22:48 45.59099 -122.59629 22 ft 0 kts